Tracking 18647 objects as of 28-May-2017
HD Live streaming from Space Station
objects crossing your sky now

COSMOS 1579

Track COSMOS 1579 now!
10-day predictions
COSMOS 1579 is classified as:


NORAD ID: 15085
Int'l Code: 1984-069A
Perigee: 926.5 km
Apogee: 973.1 km
Inclination: 65.1 °
Period: 103.9 minutes
Semi major axis: 7320 km
RCS: 2.625 m2 (large)
Launch date: June 29, 1984
Source: Commonwealth of Independent States (former USSR) (CIS)
Launch site: TYURATAM MISSILE AND SPACE COMPLEX (TTMTR)
Your satellite tracking list
Your tracking list is empty





NASA's NSSDC Master Catalog

Two Line Element Set (TLE):
1 15085U 84069A   17147.93755689 -.00000070 +00000-0 +16572-4 0  9991
2 15085 065.0522 022.4790 0031839 082.4711 277.9966 13.86043456667445
Source of the keplerian elements: AFSPC